Погода в Пяткове

Россия / Кемеровская область (Кузбасс)     55°51′17″N   84°56′48″E
темп.,
°C
ветер,
м/с
пор.,
м/с
влажн.,
%
обл.,
%
осадки,
мм/ч
давл.,
гПа
погр.,
м
16 апреля, пт
пт1601:00+3ююз51299100 0.1 1019291
04:00+3юз51299100 0.2 1016331
07:00+3юз61298100 0.3 1016304
10:00+4ююз614100100 0.0 1013309
13:00+5юз817100100 0.0 1012508
16:00+6юз71598100 1.2 1010484
19:00+4зсз51098100 2.4 1012413
22:000с41099100 1.2 1016574
17 апреля, сб
сб1701:00−1ссз379494 2.0 1018342
04:00−2с6985100 0.1 1020664
07:00−5ссв58845 0.1 1023553
10:00−4ссв45615 0.0 1024685
13:00−2с3353100 0.0 1024941
16:00−1сз2251100 0.0 1024964
19:00−1з12530 0.0 1023704
22:00−3ю33695 0.0 102360
18 апреля, вс
вс1801:00−3ю3573100 0.0 1022140
04:00−2ю4974100 0.0 1019373
07:00−1ююз61075100 0.0 1017629
10:00+1юз71271100 0.0 1014989
13:00+4юз81365100 0.0 10111304
16:00+4юз81269100 0.1 10101297
19:00+2ююз61389100 0.3 1007720
22:00+2ююз71397100 0.2 1004669
19 апреля, пн
пн1901:00−3с91492100 3.0 1006740
04:00−6ссз81189100 0.2 1011902
07:00−8ссз71185100 0.4 1016811
10:00−7ссз7966100 0.1 10201124
13:00−5сз7856100 0.1 10231703
16:00−4зсз7851100 0.1 10251967
19:00−5сз6856100 0.2 10261551
22:00−6зсз5765100 0.1 1028998
20 апреля, вт
вт2001:00−6сз466486 0.1 1029974
04:00−7сз36755 0.0 1029674
07:00−8зсз46765 0.0 1030493
10:00−6зсз4560100 0.0 10311149
13:00−3зсз4548100 0.1 10301629
16:00−2з4648100 0.1 10281653
19:00−2з4649100 0.2 10271474
22:00−3юз356599 0.1 1026176